Time,TemperatureF,DewpointF,PressureIn,WindDirection,WindDirectionDegrees,WindSpeedMPH,WindSpeedGustMPH,Humidity,HourlyPrecipIn,Conditions,Clouds,dailyrainin,SoftwareType,DateUTC
2013-10-24 00:11:00,34.6,28.0,30.11,WSW,251,0.0,0.0,77,0.00,,,0.00,weatherlink.com 1.10,2013-10-24 05:11:00,
2013-10-24 00:26:00,34.0,28.0,30.11,WSW,251,0.0,0.0,77,0.00,,,0.00,weatherlink.com 1.10,2013-10-24 05:26:00,
2013-10-24 00:41:00,33.5,28.0,30.11,WSW,251,0.0,0.0,79,0.00,,,0.00,weatherlink.com 1.10,2013-10-24 05:41:00,
2013-10-24 00:56:00,33.3,28.0,30.11,WSW,251,0.0,0.0,80,0.00,,,0.00,weatherlink.com 1.10,2013-10-24 05:56:00,
2013-10-24 01:11:00,33.1,28.0,30.11,WSW,251,0.0,0.0,81,0.00,,,0.00,weatherlink.com 1.10,2013-10-24 06:11:00,
2013-10-24 01:26:00,33.1,28.0,30.11,WSW,251,0.0,0.0,82,0.00,,,0.00,weatherlink.com 1.10,2013-10-24 06:26:00,
2013-10-24 01:41:00,33.2,28.0,30.12,WSW,251,0.0,0.0,82,0.00,,,0.00,weatherlink.com 1.10,2013-10-24 06:41:00,
2013-10-24 01:56:00,33.3,28.0,30.12,WSW,251,0.0,0.0,80,0.00,,,0.00,weatherlink.com 1.10,2013-10-24 06:56:00,
2013-10-24 02:11:00,33.4,28.0,30.12,WSW,251,0.0,0.0,80,0.00,,,0.00,weatherlink.com 1.10,2013-10-24 07:11:00,
2013-10-24 02:26:00,33.6,28.0,30.12,WSW,251,0.0,0.0,80,0.00,,,0.00,weatherlink.com 1.10,2013-10-24 07:26:00,
2013-10-24 02:41:00,33.7,28.0,30.12,WSW,251,0.0,0.0,79,0.00,,,0.00,weatherlink.com 1.10,2013-10-24 07:41:00,
2013-10-24 02:56:00,33.6,28.0,30.12,West,260,0.0,2.0,80,0.00,,,0.00,weatherlink.com 1.10,2013-10-24 07:56:00,
2013-10-24 03:11:00,33.5,28.0,30.12,West,260,0.0,0.0,79,0.00,,,0.00,weatherlink.com 1.10,2013-10-24 08:11:00,
2013-10-24 03:26:00,33.5,28.0,30.13,West,273,0.0,1.0,80,0.00,,,0.00,weatherlink.com 1.10,2013-10-24 08:26:00,
2013-10-24 03:41:00,33.4,28.0,30.13,WNW,294,0.0,2.0,80,0.00,,,0.00,weatherlink.com 1.10,2013-10-24 08:41:00,
2013-10-24 03:56:00,33.4,28.0,30.13,WNW,296,0.0,2.0,80,0.00,,,0.00,weatherlink.com 1.10,2013-10-24 08:56:00,
2013-10-24 04:11:00,33.2,28.0,30.14,WNW,296,0.0,0.0,81,0.00,,,0.00,weatherlink.com 1.10,2013-10-24 09:11:00,
2013-10-24 04:26:00,33.2,28.0,30.14,WNW,296,0.0,1.0,80,0.00,,,0.00,weatherlink.com 1.10,2013-10-24 09:26:00,
2013-10-24 04:41:00,33.1,27.0,30.15,WNW,296,0.0,0.0,79,0.00,,,0.00,weatherlink.com 1.10,2013-10-24 09:41:00,
2013-10-24 04:56:00,33.1,28.0,30.16,WNW,296,0.0,0.0,80,0.00,,,0.00,weatherlink.com 1.10,2013-10-24 09:56:00,
2013-10-24 05:11:00,32.9,28.0,30.16,WNW,296,0.0,0.0,81,0.00,,,0.00,weatherlink.com 1.10,2013-10-24 10:11:00,
2013-10-24 05:26:00,32.8,28.0,30.16,South,169,0.0,0.0,82,0.00,,,0.00,weatherlink.com 1.10,2013-10-24 10:26:00,
2013-10-24 05:42:00,32.7,28.0,30.17,ENE,58,0.0,2.0,82,0.00,,,0.00,weatherlink.com 1.10,2013-10-24 10:42:00,
2013-10-24 05:57:00,32.7,28.0,30.17,ENE,58,0.0,1.0,83,0.00,,,0.00,weatherlink.com 1.10,2013-10-24 10:57:00,
2013-10-24 06:12:00,32.6,28.0,30.18,ENE,58,0.0,1.0,82,0.00,,,0.00,weatherlink.com 1.10,2013-10-24 11:12:00,
2013-10-24 06:28:00,32.6,28.0,30.18,ENE,58,0.0,0.0,83,0.00,,,0.00,weatherlink.com 1.10,2013-10-24 11:28:00,
2013-10-24 06:42:00,32.6,28.0,30.18,ENE,58,0.0,0.0,83,0.00,,,0.00,weatherlink.com 1.10,2013-10-24 11:42:00,
2013-10-24 06:57:00,32.6,28.0,30.18,ENE,58,0.0,0.0,83,0.00,,,0.00,weatherlink.com 1.10,2013-10-24 11:57:00,
2013-10-24 07:12:00,32.6,28.0,30.19,ENE,58,0.0,1.0,82,0.00,,,0.00,weatherlink.com 1.10,2013-10-24 12:12:00,
2013-10-24 07:27:00,32.5,28.0,30.20,NE,55,0.0,3.0,82,0.00,,,0.00,weatherlink.com 1.10,2013-10-24 12:27:00,
2013-10-24 07:42:00,32.5,27.0,30.20,NE,51,0.0,2.0,80,0.00,,,0.00,weatherlink.com 1.10,2013-10-24 12:42:00,
2013-10-24 10:57:00,35.6,23.0,30.28,North,355,1.0,5.0,61,0.00,,,0.00,weatherlink.com 1.10,2013-10-24 15:57:00,
2013-10-24 11:12:00,35.9,23.0,30.28,NW,318,0.0,4.0,60,0.00,,,0.00,weatherlink.com 1.10,2013-10-24 16:12:00,
2013-10-24 11:27:00,36.3,24.0,30.28,ENE,65,0.0,3.0,61,0.00,,,0.00,weatherlink.com 1.10,2013-10-24 16:27:00,
2013-10-24 11:43:00,36.6,24.0,30.28,NNE,13,2.0,3.0,60,0.00,,,0.00,weatherlink.com 1.10,2013-10-24 16:43:00,
2013-10-24 11:57:00,37.5,24.0,30.29,North,5,4.0,7.0,58,0.00,,,0.00,weatherlink.com 1.10,2013-10-24 16:57:00,
2013-10-24 12:28:00,37.9,24.0,30.29,West,273,0.0,7.0,57,0.00,,,0.00,weatherlink.com 1.10,2013-10-24 17:28:00,
2013-10-24 12:43:00,37.6,24.0,30.29,NNW,331,0.0,5.0,58,0.00,,,0.00,weatherlink.com 1.10,2013-10-24 17:43:00,
2013-10-24 12:58:00,38.3,25.0,30.29,North,355,1.0,3.0,59,0.00,,,0.00,weatherlink.com 1.10,2013-10-24 17:58:00,
2013-10-24 13:13:00,38.2,24.0,30.29,North,351,0.0,6.0,58,0.00,,,0.00,weatherlink.com 1.10,2013-10-24 18:13:00,
2013-10-24 13:28:00,38.0,25.0,30.29,WNW,301,0.0,6.0,59,0.00,,,0.00,weatherlink.com 1.10,2013-10-24 18:28:00,
2013-10-24 13:43:00,38.0,25.0,30.29,WSW,242,1.0,4.0,61,0.00,,,0.00,weatherlink.com 1.10,2013-10-24 18:43:00,
2013-10-24 13:58:00,38.0,26.0,30.29,East,79,1.0,3.0,62,0.00,,,0.00,weatherlink.com 1.10,2013-10-24 18:58:00,
2013-10-24 14:13:00,38.2,26.0,30.29,WNW,295,0.0,5.0,61,0.00,,,0.00,weatherlink.com 1.10,2013-10-24 19:13:00,
2013-10-24 14:28:00,38.8,25.0,30.29,NW,321,0.0,4.0,59,0.00,,,0.00,weatherlink.com 1.10,2013-10-24 19:28:00,
2013-10-24 14:43:00,39.1,26.0,30.29,East,85,1.0,4.0,60,0.00,,,0.00,weatherlink.com 1.10,2013-10-24 19:43:00,
2013-10-24 14:58:00,39.4,26.0,30.30,East,94,1.0,7.0,60,0.00,,,0.00,weatherlink.com 1.10,2013-10-24 19:58:00,
2013-10-24 15:13:00,39.8,26.0,30.30,ENE,59,0.0,7.0,58,0.00,,,0.00,weatherlink.com 1.10,2013-10-24 20:13:00,
2013-10-24 15:28:00,40.0,26.0,30.30,WNW,285,3.0,6.0,58,0.00,,,0.00,weatherlink.com 1.10,2013-10-24 20:28:00,
2013-10-24 15:43:00,40.4,26.0,30.30,NW,320,0.0,4.0,56,0.00,,,0.00,weatherlink.com 1.10,2013-10-24 20:43:00,
2013-10-24 15:58:00,40.5,25.0,30.30,WNW,289,0.0,3.0,55,0.00,,,0.00,weatherlink.com 1.10,2013-10-24 20:58:00,
2013-10-24 16:13:00,41.9,26.0,30.30,NW,325,0.0,6.0,53,0.00,,,0.00,weatherlink.com 1.10,2013-10-24 21:13:00,
2013-10-24 16:28:00,41.6,26.0,30.30,NW,314,0.0,3.0,54,0.00,,,0.00,weatherlink.com 1.10,2013-10-24 21:28:00,
2013-10-24 16:43:00,40.5,26.0,30.30,SW,229,0.0,2.0,56,0.00,,,0.00,weatherlink.com 1.10,2013-10-24 21:43:00,
2013-10-24 16:58:00,40.7,25.0,30.31,NW,321,0.0,1.0,55,0.00,,,0.00,weatherlink.com 1.10,2013-10-24 21:58:00,
2013-10-24 17:13:00,40.2,25.0,30.31,North,5,0.0,3.0,55,0.00,,,0.00,weatherlink.com 1.10,2013-10-24 22:13:00,
2013-10-24 17:28:00,39.8,26.0,30.32,North,5,0.0,1.0,57,0.00,,,0.00,weatherlink.com 1.10,2013-10-24 22:28:00,
2013-10-24 17:43:00,39.2,26.0,30.32,North,5,0.0,0.0,59,0.00,,,0.00,weatherlink.com 1.10,2013-10-24 22:43:00,
2013-10-24 17:58:00,38.4,27.0,30.32,North,5,0.0,0.0,63,0.00,,,0.00,weatherlink.com 1.10,2013-10-24 22:58:00,
2013-10-24 18:13:00,37.3,26.0,30.33,North,5,0.0,0.0,64,0.00,,,0.00,weatherlink.com 1.10,2013-10-24 23:13:00,
2013-10-24 18:28:00,36.1,26.0,30.33,North,5,0.0,0.0,66,0.00,,,0.00,weatherlink.com 1.10,2013-10-24 23:28:00,
2013-10-24 18:43:00,35.0,25.0,30.34,North,5,0.0,0.0,67,0.00,,,0.00,weatherlink.com 1.10,2013-10-24 23:43:00,
2013-10-24 18:58:00,34.3,25.0,30.34,North,5,0.0,0.0,69,0.00,,,0.00,weatherlink.com 1.10,2013-10-24 23:58:00,
2013-10-24 19:13:00,33.9,25.0,30.35,North,5,0.0,0.0,71,0.00,,,0.00,weatherlink.com 1.10,2013-10-25 00:13:00,
2013-10-24 19:28:00,33.5,25.0,30.35,North,5,0.0,0.0,71,0.00,,,0.00,weatherlink.com 1.10,2013-10-25 00:28:00,
2013-10-24 19:43:00,32.7,25.0,30.35,North,5,0.0,0.0,72,0.00,,,0.00,weatherlink.com 1.10,2013-10-25 00:43:00,
2013-10-24 19:58:00,32.1,24.0,30.36,North,5,0.0,0.0,73,0.00,,,0.00,weatherlink.com 1.10,2013-10-25 00:58:00,
2013-10-24 20:13:00,31.5,24.0,30.36,North,5,0.0,0.0,75,0.00,,,0.00,weatherlink.com 1.10,2013-10-25 01:13:00,
2013-10-24 20:28:00,31.1,24.0,30.36,North,5,0.0,0.0,76,0.00,,,0.00,weatherlink.com 1.10,2013-10-25 01:28:00,
2013-10-24 20:43:00,30.8,24.0,30.37,North,5,0.0,0.0,76,0.00,,,0.00,weatherlink.com 1.10,2013-10-25 01:43:00,
2013-10-24 20:58:00,30.5,24.0,30.37,North,5,0.0,0.0,76,0.00,,,0.00,weatherlink.com 1.10,2013-10-25 01:58:00,
2013-10-24 21:13:00,30.1,24.0,30.37,North,5,0.0,0.0,78,0.00,,,0.00,weatherlink.com 1.10,2013-10-25 02:13:00,
2013-10-24 21:28:00,29.8,24.0,30.37,North,5,0.0,0.0,78,0.00,,,0.00,weatherlink.com 1.10,2013-10-25 02:28:00,
2013-10-24 21:43:00,29.7,24.0,30.38,North,5,0.0,0.0,79,0.00,,,0.00,weatherlink.com 1.10,2013-10-25 02:43:00,
2013-10-24 21:58:00,29.6,24.0,30.38,North,5,0.0,0.0,79,0.00,,,0.00,weatherlink.com 1.10,2013-10-25 02:58:00,
2013-10-24 22:13:00,29.2,23.0,30.39,North,5,0.0,0.0,79,0.00,,,0.00,weatherlink.com 1.10,2013-10-25 03:13:00,
2013-10-24 22:28:00,28.9,24.0,30.39,North,5,0.0,0.0,81,0.00,,,0.00,weatherlink.com 1.10,2013-10-25 03:28:00,
2013-10-24 22:43:00,28.9,24.0,30.39,North,5,0.0,0.0,81,0.00,,,0.00,weatherlink.com 1.10,2013-10-25 03:43:00,
2013-10-24 22:58:00,28.9,24.0,30.39,North,5,0.0,0.0,81,0.00,,,0.00,weatherlink.com 1.10,2013-10-25 03:58:00,
2013-10-24 23:13:00,29.0,24.0,30.39,North,5,0.0,0.0,81,0.00,,,0.00,weatherlink.com 1.10,2013-10-25 04:13:00,
2013-10-24 23:28:00,29.0,24.0,30.39,North,5,0.0,0.0,81,0.00,,,0.00,weatherlink.com 1.10,2013-10-25 04:28:00,
2013-10-24 23:44:00,28.9,24.0,30.39,North,5,0.0,0.0,81,0.00,,,0.00,weatherlink.com 1.10,2013-10-25 04:44:00,
2013-10-24 23:59:00,28.9,23.0,30.39,North,5,0.0,0.0,80,0.00,,,0.00,weatherlink.com 1.10,2013-10-25 04:59:00,